Dallas, TX

8:51 PM CST on February 24, 2017 (GMT -0600)
Dallas-Fort Worth International

Weather History for KDFW - November, 2010

Change the Weather History Date:

Saturday, November 13, 2010

  Actual Average Record
Temperature  
Mean Temperature 52 °F 58 °F  
Max Temperature 60 °F 68 °F 85 °F (1951)
Min Temperature 44 °F 47 °F 21 °F (1907)
Degree Days  
Heating Degree Days 13 8  
Month to date heating degree days 72 85  
Since 1 July heating degree days 98 157  
Cooling Degree Days 0 1  
Month to date cooling degree days 11 21  
Year to date cooling degree days 3181 2744  
Growing Degree Days 2 (Base 50)    
Moisture  
Dew Point 38 °F    
Average Humidity 59    
Maximum Humidity 77    
Minimum Humidity 40    
Precipitation  
Precipitation 0.00 in 0.09 in 2.33 in (1909)
Month to date precipitation 1.38 1.38  
Year to date precipitation 29.53 32.26  
Snow  
Snow 0.00 in 0.00 in 4.70 in (1976)
Month to date snowfall 0.0 0.0  
Since 1 July snowfall 0.0 0.0  
Since 1 September snowfall 0.0 0.0  
Snow Depth 0.00 in    
Sea Level Pressure  
Sea Level Pressure 30.22 in    
Wind  
Wind Speed 10 mph (NNW)    
Max Wind Speed 24 mph    
Max Gust Speed 29 mph    
Visibility 10 miles    
Events      
T = Trace of Precipitation, MM = Missing Value Source: NWS Daily Summary

Daily Weather History Graph

Daily Weather History Graph

Search for Another Location

Airport or City:

Trip Planner

Search our weather history database for the weather conditions in past years. The results will help you decide how hot, cold, wet, or windy it might be!

Date:

Astronomy

Nov. 13, 2010 Rise Set
Actual Time 6:56 AM CST 5:27 PM CST
Civil Twilight 6:30 AM CST 5:53 PM CST
Nautical Twilight 6:00 AM CST 6:23 PM CST
Astronomical Twilight 5:31 AM CST 6:52 PM CST
Moon 12:58 PM CST (11/13) No Moon Set
Length of Visible Light 11h 23m
Length of Day
10h 31m
Waxing Crescent, 51% of the Moon is Illuminated
Nov 13
Waxing Crescent
Nov 21
Full
Nov 28
Last Quarter
Dec 5
New
Dec 13
First Quarter

Hourly Weather History & Observations

Time (CST) Temp. Windchill Dew Point Humidity Pressure Visibility Wind Dir Wind Speed Gust Speed Precip Events Conditions
12:53 AM 48.9 °F - 41.0 °F 74% 30.23 in 10.0 mi NW 16.1 mph - N/A   Mostly Cloudy
1:07 AM 48.2 °F - 41.0 °F 76% 30.23 in 10.0 mi NNW 15.0 mph - N/A   Mostly Cloudy
1:53 AM 48.9 °F - 39.9 °F 71% 30.25 in 10.0 mi NW 12.7 mph - N/A   Mostly Cloudy
2:53 AM 48.0 °F - 39.0 °F 71% 30.25 in 10.0 mi NNW 16.1 mph 25.3 mph N/A   Overcast
3:53 AM 48.0 °F - 39.0 °F 71% 30.24 in 10.0 mi NNW 19.6 mph - N/A   Overcast
4:53 AM 46.9 °F - 37.9 °F 71% 30.25 in 10.0 mi North 12.7 mph - N/A   Mostly Cloudy
5:53 AM 48.0 °F - 37.9 °F 68% 30.26 in 10.0 mi NNW 18.4 mph 25.3 mph N/A   Overcast
6:53 AM 46.9 °F - 37.9 °F 71% 30.27 in 10.0 mi NNW 13.8 mph - N/A   Mostly Cloudy
7:04 AM 46.4 °F 40.7 °F 37.4 °F 71% 30.27 in 10.0 mi North 12.7 mph - N/A   Scattered Clouds
7:53 AM 48.0 °F - 37.0 °F 66% 30.27 in 10.0 mi NNW 18.4 mph 24.2 mph N/A   Scattered Clouds
8:28 AM 48.2 °F - 37.4 °F 66% 30.29 in 10.0 mi North 17.3 mph - N/A   Mostly Cloudy
8:53 AM 48.0 °F - 37.9 °F 68% 30.30 in 10.0 mi NNW 16.1 mph - N/A   Mostly Cloudy
9:53 AM 50.0 °F - 37.9 °F 63% 30.30 in 10.0 mi NNW 15.0 mph - N/A   Mostly Cloudy
10:21 AM 51.8 °F - 37.4 °F 58% 30.30 in 10.0 mi North 13.8 mph - N/A   Scattered Clouds
10:53 AM 54.0 °F - 39.0 °F 57% 30.29 in 10.0 mi NNW 13.8 mph - N/A   Scattered Clouds
11:53 AM 55.9 °F - 37.9 °F 51% 30.25 in 10.0 mi North 11.5 mph 17.3 mph N/A   Partly Cloudy
12:53 PM 57.0 °F - 37.9 °F 49% 30.21 in 10.0 mi NNW 8.1 mph 16.1 mph N/A   Partly Cloudy
1:53 PM 57.9 °F - 37.0 °F 46% 30.18 in 10.0 mi NW 10.4 mph 16.1 mph N/A   Partly Cloudy
2:53 PM 59.0 °F - 36.0 °F 42% 30.16 in 10.0 mi NW 6.9 mph - N/A   Partly Cloudy
3:53 PM 59.0 °F - 37.0 °F 44% 30.14 in 10.0 mi North 6.9 mph - N/A   Partly Cloudy
4:53 PM 57.9 °F - 36.0 °F 44% 30.14 in 10.0 mi NNW 6.9 mph - N/A   Partly Cloudy
5:53 PM 53.1 °F - 37.0 °F 55% 30.14 in 10.0 mi East 3.5 mph - N/A   Clear
6:53 PM 51.1 °F - 37.9 °F 61% 30.14 in 10.0 mi Calm Calm - N/A   Clear
7:53 PM 52.0 °F - 37.9 °F 59% 30.14 in 10.0 mi Calm Calm - N/A   Clear
8:53 PM 52.0 °F - 37.9 °F 59% 30.14 in 10.0 mi Calm Calm - N/A   Clear
9:53 PM 48.9 °F - 37.9 °F 66% 30.15 in 10.0 mi SW 3.5 mph - N/A   Clear
10:53 PM 46.0 °F - 37.9 °F 73% 30.15 in 10.0 mi Calm Calm - N/A   Clear
11:53 PM 45.0 °F - 37.9 °F 76% 30.14 in 10.0 mi Calm Calm - N/A   Clear